COSMOS 375 DEB

Satellite information

Favourite Embed

Satellite Type and Status

DEBRISIN ORBIT

Key statistics

Satellite COSMOS 375 DEB at a glance.

Uptime

19973

Days in orbit

Revolutions

≈ 13.0

Per day

Orbit

LEO

Low Earth Orbit

Inclination

62.8

Latest

Satellite identification and parameters

Extended collection of information and parameters for COSMOS 375 DEB.

Object identification

Identified? True

Debris? True

Object name: COSMOS 375 DEB

International designator: 1970-091J

Object number (NORAD): 4629

Object ID (CCSDS): 4629

Country: COMMONWEALTH OF INDEPENDENT STATES (CIS)

Current information (Y/N): Y

RCS size: MEDIUM

Orbital parameters

Period: 110.54 minutes

Inclination: 62.8449 deg

SMA: 7629.679 km

Apoapsis: 1977.606 km

Periapsis: 525.483 km

RAAN: 70.0492 deg

Eccentricy: 0.0951628

Argument of periapsis: 30.0332 deg

Mean anomaly: 335.1902 deg

Mean motion: 13.02696789 rev/day

Mean motion (dot): 0.00000524 rev/day2

B* drag term: 0.00020677 1/REarth

Two-line elements (TLE)

Creation date: July 5, 2025, 11:06 p.m.

Reference frame: TEME

Reference center: EARTH

Epoch: July 5, 2025, 9:53 p.m. UTC

TLE line 0: 0 COSMOS 375 DEB

TLE line 1: 1 4629U 70091J 25186.91227355 .00000524 00000-0 20677-3 0 9990

TLE line 2: 2 4629 62.8449 70.0492 0951628 30.0332 335.1902 13.02696789584359

Live tracking on map

Real-time ground track for satellite COSMOS 375 DEB.

In-orbit conjunctions

A list of the most updated potential collisions computed for object COSMOS 375 DEB.

Target Orbit TCA Probability of collision Miss distance Type
ELECTRON KICK STAGE R/B SSO 2024-12-03 19:03:54 0.0002474298 636.0 (m) ROCKET BODY

Associated space launch

The I2P satellites were the first soviet coorbital ASAT system.

COSMOS 375 DEB was lifted into orbit during the mission ‘Tsiklon-2 | I2P 5’, on board a Tsiklon-2 space rocket.

The launch took place on Oct. 30, 1970, 2:36 a.m. from 90/20.

For more information about the launch, click the button.

Launch to space Tsiklon-2 | I2P 5
Tsiklon-2 | I2P 5

Agency: N/A

Status: Launch Successful

Launch date: Oct. 30, 1970, 2:36 a.m. UTC

Rocket: Tsiklon-2

Launch pad: 90/20

Location: Baikonur Cosmodrome, Republic of Kazakhstan

...

Latest news about this satellite

There are no fresh news available about this satellite. Check back as we update our databases every day.


Newsletter sign-up

Weekly statistics, charts and insights to help you stay on top of the space industry.